STARLINK-38081, 100153

Orbit data source: Space-Track

STARLINK-38081, 100153 is a payload satellite owned by SpaceX/Seattle (US) in SSO that was launched on Sat, 25 Jul 2026 UTC launched from the Air Force Western Test Range (AFWTR). Payload-class satellites include a variety of spacecraft equipped with specific instruments for various scientific and technological missions. These include communications satellites like Starlink; space stations such as the ISS; scientific satellites like the Hubble; Earth observation satellites from companies like Planet Labs, Umbra, and HawkEye 360; GPS; miniature CubeSats for education and research; and military/defense satellites.

Loading next visibility...
Identifier
100153, 2026-171F
Orbit
SSO
Country
Flag of USUS
Related business
Manufacturer
SpaceX/Seattle
Mission
Operational spacecraft
Bus & Motor
STARLINK V2MO, Unknown motor
Mass
575 kg wet, ~530 kg dry
Launch date (UTC)
2026-07-25 (3 weeks ago)
Launch vehicle
Unknown
Launch site
Air Force Western Test Range (AFWTR)
Object type
Payload
Rocket body
Debris
Shape & HBR
BOX + PAN, 17.7 m
Radar Cross Section
RCS unknown

Expand to show TLE details & history
Last TLE update: 8 hours ago

TLE from 8 hours ago
0 STARLINK-38081
1 A0153U 26171F   26227.59272386  .00204494  00000-0  13351-2 0  9995
2 A0153  97.2826 259.4911 0001216  57.0628 303.0754 15.75263449  3320
Epoch: 2026-08-15T14:13Z
TLE epoch observation values (Epoch: 2026-08-15T14:13:31.341Z)
Latitude
-0.00003°
Longitude
82.10914°
Altitude
346.604 km
Speed
7.701 km/s
True Right ascension
17h 17m 57s
True Declination
0° 00' 00"
Sunlit
Object was in full shadow at epoch
Visualization orbit readout
Latitude
Unknown
Longitude
Unknown
Altitude
Unknown
Speed
Unknown
Apparent Right ascension
Unknown
Apparent Declination
Unknown
Sunlit
N/A
Visualization observer readout
Local Sidereal Time
13:19:48
Azimuth
Unknown
Elevation
Unknown
Doppler factor
Unknown
Orbital elements
Apogee altitude
341.586 km
Perigee altitude
339.952 km
Semi-major axis
6,718.906 km
Eccentricity
0.00012
Inclination
97.2826°
RAAN
259.4911°
Arg. of periapsis
57.0628°
True anomaly
303.06372°
Mean anomaly
303.0754°
Eccentric anomaly
303.06956°
Mean motion
3.9409 °/min
Orbital period
91.35 mins
BSTAR
0.0013351
Loading maneuver chart data...
Computing Atmospheric mass density...
Loading historical data...
Loading historical data...
Loading historical data...
Loading historical data...
Loading historical data...
Loading historical data...
Loading historical data...

Documentation

Showing up to 5 results
|